This demonstration page uses our WeatherBlox Daily Observations layout. Learn more.

Left ArrowRight Arrow

Hourly Observations for March 6, 2020

Temp ( °F °C ) Dew Point ( °F °C ) Humidity (%) Winds ( mph kmh ) Pressure ( in mb ) Visibility ( mi km ) Precip ( " mm )
12:53 am 00:53 Clear 36 2.2 24 -4.4 62 62 WSW 12 19 29.95 1014 10 16 N/A
1:53 am 01:53 Clear 37 2.8 24 -4.4 59 59 WNW 3 6 29.95 1014 10 16 N/A
2:53 am 02:53 Clear 37 2.8 23 -5 57 57 W 3 6 29.94 1014 10 16 N/A
3:53 am 03:53 Clear 37 2.8 23 -5 57 57 N N/A 29.92 1013 10 16 N/A
4:53 am 04:53 Clear 30 -1.1 23 -5 75 75 ENE 5 7 29.94 1014 10 16 N/A
5:53 am 05:53 Clear 30 -1.1 23 -5 75 75 E 7 11 29.93 1014 10 16 N/A
6:53 am 06:53 Sunny 27 -2.8 22 -5.6 81 81 ESE 8 13 29.95 1014 10 16 N/A
7:53 am 07:53 Sunny 27 -2.8 23 -5 85 85 N N/A 29.95 1014 10 16 N/A
8:53 am 08:53 Sunny 36 2.2 25 -3.9 64 64 N N/A 29.94 1014 10 16 N/A
9:53 am 09:53 Sunny 44 6.7 27 -2.8 51 51 N N/A 29.93 1014 10 16 N/A
10:53 am 10:53 Sunny 52 11.1 26 -3.3 37 37 N N/A 29.91 1013 10 16 N/A
11:53 am 11:53 Sunny 57 13.9 26 -3.3 30 30 W 7 11 29.88 1012 10 16 N/A
12:53 pm 12:53 Sunny 60 15.6 26 -3.3 27 27 SSW 5 7 29.84 1011 10 16 N/A
1:53 pm 13:53 Sunny 64 17.8 26 -3.3 24 24 VRB 3 6 29.80 1009 10 16 N/A
2:53 pm 14:53 Sunny 64 17.8 24 -4.4 22 22 ENE 3 6 29.78 1009 10 16 N/A
3:53 pm 15:53 Sunny 64 17.8 26 -3.3 24 24 NE 9 15 29.77 1008 10 16 N/A
4:53 pm 16:53 Sunny 60 15.6 27 -2.8 28 28 ENE 12 19 29.80 1009 10 16 N/A
5:53 pm 17:53 Sunny 52 11.1 29 -1.7 41 41 ENE 10 17 29.81 1009 10 16 N/A
6:53 pm 18:53 Clear 47 8.3 31 -0.6 54 54 E 13 20 29.82 1010 10 16 N/A
7:53 pm 19:53 Clear 45 7.2 31 -0.6 58 58 ENE 12 19 29.84 1011 10 16 N/A
8:53 pm 20:53 Clear 44 6.7 30 -1.1 58 58 ENE 9 15 29.83 1010 10 16 N/A
9:53 pm 21:53 Clear 44 6.7 29 -1.7 55 55 ENE 10 17 29.81 1009 10 16 N/A
10:53 pm 22:53 Clear 41 5 29 -1.7 62 62 ENE 8 13 29.79 1009 10 16 N/A
11:53 pm 23:53 Clear 38 3.3 28 -2.2 68 68 ENE 6 9 29.78 1008 10 16 N/A

Powered by AerisWeather